IS0GQX-3 Weather Reports


time (UTC)temp
C
wind
direction
speed
KPH
gust
KPH
rain 1hr
cm
rain 24hr
cm
rain mn
cm
humidity
%
barometer
mb
20260504080908 28 0.0 0.0 0.00 0.00 0.00 1017.8
20260504044904 23 0.0 0.0 0.00 0.00 0.00 1018.1
20260504042904 23 0.0 0.0 0.00 0.00 0.00 1018.1
20260504040904 22 0.0 0.0 0.00 0.00 0.00 1018.1
20260504034903 22 0.0 0.0 0.00 0.00 0.00 1017.9
20260504032903 22 0.0 0.0 0.00 0.00 0.00 1017.6
20260504030903 22 0.0 0.0 0.00 0.00 0.00 1017.9
20260504024903 21 0.0 0.0 0.00 0.00 0.00 1018.4
20260504022902 21 0.0 0.0 0.00 0.00 0.00 1018.4
20260504020902 21 0.0 0.0 0.00 0.00 0.00 1018.4
20260504014902 21 0.0 0.0 0.00 0.00 0.00 1018.3
20260504012901 21 0.0 0.0 0.00 0.00 0.00 1018.3
20260504010901 21 0.0 0.0 0.00 0.00 0.00 1018.5
20260504004901 22 0.0 0.0 0.00 0.00 7.11 1018.9
20260504002900 22 0.0 0.0 0.00 0.00 7.11 1019.4
20260504000900 23 0.0 0.0 0.00 0.00 7.11 1019.4
20260503234900 23 0.0 0.0 0.00 0.00 7.11 1019.6
20260503232900 22 0.0 0.0 0.00 0.00 7.11 1019.5
20260503230859 23 0.0 0.0 0.00 0.00 7.11 1019.2
20260503224859 23 0.0 0.0 0.00 0.00 7.11 1020.6
20260503222859 22 0.0 0.0 0.00 0.00 7.11 1020.5
20260503220858 22 0.0 0.0 0.00 0.00 7.11 1020.1
20260503220315 22 0.0 0.0 0.00 0.00 0.00 1019.7
20260503214311 22 0.0 0.0 0.00 0.00 0.00 1019.2
20260503212306 22 0.0 0.0 0.00 0.00 0.00 1019.9
20260503210302 22 0.0 0.0 0.00 0.00 0.00 1019.5
20260503204258 22 0.0 0.0 0.00 0.00 0.00 1019.7
20260503202254 22 0.0 0.0 0.00 0.00 0.00 1019.8
20260503200250 23 0.0 0.0 0.00 0.00 0.00 1019.9
20260503194246 23 0.0 0.0 0.00 0.00 0.00 1019.9
20260503192243 23 0.0 0.0 0.00 0.00 0.00 1019.7
20260503190239 23 0.0 0.0 0.00 0.00 0.00 1019.4
20260503184235 24 0.0 0.0 0.00 0.00 0.00 1019.0
20260503182231 24 0.0 0.0 0.00 0.00 0.00 1018.8
20260503180227 25 0.0 0.0 0.00 0.00 0.00 1018.7
20260503174223 25 0.0 0.0 0.00 0.00 0.00 1018.6
20260503172219 26 0.0 0.0 0.00 0.00 0.00 1018.8
20260503170215 26 0.0 0.0 0.00 0.00 0.00 1018.9
20260503160204 29 0.0 0.0 0.00 0.00 0.00 1018.8
20260503150152 30 0.0 0.0 0.00 0.00 0.00 1019.0
20260503140140 27 0.0 0.0 0.00 0.00 0.00 1019.8
20260503130128 28 0.0 0.0 0.00 0.00 0.00 1020.3
20260503120117 27 0.0 0.0 0.00 0.00 0.00 1020.8
20260503110105 28 0.0 0.0 0.00 0.00 0.00 1021.2